Tracking 19969 objects as of 13-Nov-2019
Live streaming from Space Station
objects crossing your sky now
Track the group of recently launched Starlink satellites

GLOBALSTAR M044

Track GLOBALSTAR M044 now!
10-day predictions
GLOBALSTAR M044 is classified as:


NORAD ID: 25678
Int'l Code: 1999-019C
Perigee: 1,726.9 km
Apogee: 1,737.5 km
Inclination: 52.0 °
Period: 121.0 minutes
Semi major axis: 8103 km
RCS: 2.4818 m2 (large)
Launch date: April 15, 1999
Source: Globalstar (GLOB)
Launch site: TYURATAM MISSILE AND SPACE COMPLEX (TTMTR)
aabbcc
Your satellite tracking list
Your tracking list is empty




NASA's NSSDC Master Catalog

Two Line Element Set (TLE):
1 25678U 99019C   19316.78450407 -.00000110  00000-0 -36731-3 0  9998
2 25678  51.9990  51.3131 0006559  64.5002  86.9622 11.90190299927988
Source of the keplerian elements: AFSPC